SL-8 DEB, 2334

Orbit data source: Space-Track

SL-8 DEB, 2334 is space debris in LEO originally from a launch on Mon, 15 Mar 1965 UTC launched from the Tyuratam Missile And Space Complex (TTMTR). Debris objects in space refer to the collection of defunct objects orbiting the Earth. Examples of debris include non-operational satellites, rocket bodies, and fragments generated from explosions, collisions, or faulty payload assembly.

Loading next visibility...
Identifier
2334, 1965-020EH
Orbit
LEO
Country
Flag of CISCIS
Related business
Manufacturer
Unknown
Mission
Spacecraft
Bus & Motor
Unknown
Mass
Unknown
Launch date (UTC)
1965-03-15 (61 years ago)
Launch vehicle
Unknown
Launch site
Tyuratam Missile And Space Complex (TTMTR)
Object type
Payload
Rocket body
Debris
Shape & HBR
Unknown shape, 0.1 m
Radar Cross Section
Small (<0.1 m²)

Expand to show TLE details & history
Last TLE update: 8 hours ago

TLE from 8 hours ago
0 SL-8 DEB
1 02334U 65020EH  26123.61848793  .00000646  00000-0  89689-3 0  9994
2 02334  55.6727 100.7411 0583492 307.2268  47.6767 13.12253260845097
Epoch: 2026-05-03T14:50Z
TLE epoch observation values (Epoch: 2026-05-03T14:50:37.357Z)
Latitude
-0.00006°
Longitude
16.56596°
Altitude
932.219 km
Speed
7.523 km/s
True Right ascension
06h 42m 57s
True Declination
0° 00' 00"
Sunlit
Object was in daylight at epoch
Visualization orbit readout
Latitude
Unknown
Longitude
Unknown
Altitude
Unknown
Speed
Unknown
Apparent Right ascension
Unknown
Apparent Declination
Unknown
Sunlit
N/A
Visualization observer readout
Local Sidereal Time
06:40:44
Azimuth
Unknown
Elevation
Unknown
Doppler factor
Unknown
Orbital elements
Apogee altitude
1,657.34 km
Perigee altitude
771.312 km
Semi-major axis
7,592.463 km
Eccentricity
0.05835
Inclination
55.6727°
RAAN
100.7411°
Arg. of periapsis
307.2268°
True anomaly
52.86788°
Mean anomaly
47.6767°
Eccentric anomaly
50.24695°
Mean motion
3.28072 °/min
Orbital period
109.73 mins
BSTAR
0.00089689
Loading maneuver chart data...
Computing Atmospheric mass density...
Loading historical data...
Loading historical data...
Loading historical data...
Loading historical data...
Loading historical data...
Loading historical data...
Loading historical data...

Documentation

Showing up to 5 results
|